Погода в Туле

Хотите узнать прогноз погоды в Туле? Тогда Вам сюда: Погода в Туле

Поиск расширенной информации на нашем сайте:

Полезная информация:

Новости сайта



02.01.2020
Опубликован Долгосрочный прогноз погоды по городам России и ближнего зарубежья на январь 2020 года.
Карты: Прогноз на январь и февраль 2020 года, Сравнение прогнозируемой аномалии приземной температуры воздуха на январь 2020 года по разным моделям.




Погода в Туле - сегодня

Время (UTC), дата Ветер
(°,м/с) 
Видим.   Явления Облачность Т
(°С)
Тd
(°С)
f(%) Тe
(°С)
Pmin
(гПа)
dP
(гПа)
Po
(мм)
O2
(г/м3)
Тmin Tmax R s Состояние
почвы
15 09.08.20 330 (СЗ) 10 км    3/3 1000 м 
[Cu med, cong]
+24.6 +11.6 44 +28  1014.2  -0.8  743  273           
18 09.08.20 тихо ()   10 км    3/0 верхняя 
[Ci fib]
+18.4 +13.4 73 +25  1015.3  0.5  743  278    +25.4       
21 09.08.20 350 (С) 10 км    6/0 средняя 
[Ac trans]
+17.4 +13.4 77 +25  1015.7  0.3  744  279           
00 10.08.20 020 (С) 10 км    4/0 средняя 
[Ac trans]
+15.2 +12.6 84 +22  1016.2  0.3  744  281           
03 10.08.20 тихо ()   10 км    ясно 
+13.3 +12.7 96 +18  1016.5  0.2  744  283  +12.3         
06 10.08.20 360 (С) 10 км    ясно 
+20.4 +13.4 64 +27  1016.1  0.2  744  276  +12.3        сухая 
09 10.08.20 040 (СВ) 10 км    4/3 1000 м верхняя 
[Cu med, cong|Ci fib]
+23.3 +9.8 42 +24  1015.6  -0.3  744  274           
12 10.08.20 360 (С) 10 км    4/3 1000 м верхняя 
[Cu med, cong|Ci fib]
+24.8 +10.4 40 +27  1014.4  -1.1  743  273           
15 10.08.20 340 (С) 10 км    3/3 1000 м 
[Cu med, cong]
+24.8 +11.1 42 +28  1013.8  -0.6  743  272           
18 10.08.20 260 (З) 10 км    4/0 средняя, верхняя 
[Ac trans|Ci fib]
+18.4 +13.2 72 +26  1014.4  0.1  743  278    +25.2       
21 10.08.20 190 (Ю) 10 км    ясно 
+15.8 +13.8 88 +24  1013.9  -0.7  742  280           
00 11.08.20 240 (ЮЗ) 10 км    ясно 
+14.6 +13.9 96 +23  1014.1  0.1  742  281           
03 11.08.20 240 (ЮЗ) 10 км    8/4 1000 м средняя, верхняя 
[Sc|Ac trans|Ci fib]
+15.1 +14.2 94 +24  1013.2  -0.7  742  280  +14.3         
06 11.08.20 240 (ЮЗ) 10 км    9/4 1000 м средняя, верхняя 
[Sc|Ac trans|Ci fib]
+18.3 +15.9 86 +31  1012.9  -0.1  742  277  +14.3        сухая 
09 11.08.20 340 (С) 10 км    9/5 600 м кучево-дожд., средняя, верхняя 
[Cb calv|Ac trans|Ci fib]
+22.2 +14.9 63 +31  1012.2  -0.4  741  273           
12 11.08.20 340 (С) 10 км  {гроза, ливн. осадки}  9/8 600 м кучево-дожд., верхняя 
[Cb calv|Ci fib]
+21.6 +15 66 +31  1012.4  0.2  742  274           
15 11.08.20 330 (СЗ) 10 км    8/5 1000 м верхняя 
[Cu med, cong|Ci fib]
+20.7 +13 61 +26  1012.4  -0.1  742  275      0.0     
18 11.08.20 330 (СЗ) 10 км    9/8 600 м кучево-дожд., верхняя 
[Cb calv|Ci fib]
+17 +9.6 62 +18  1013.5  0.7  742  280    +22.8  0.0     
21 11.08.20 320 (СЗ) 10 км    6/6 1000 м 
[Sc]
+13.5 +9.4 76 +16  1013.7  742  283           
00 12.08.20 240 (ЮЗ) 10 км    ясно 
+9.6 +9.1 97 +11  1013.9  -0.2  742  287           
03 12.08.20 230 (ЮЗ) 10 км    3/3 1000 м 
[Sc]
+9.2 +9.2 100 +10  1013.7  -0.3  742  287  +8.7         
06 12.08.20 330 (СЗ) 10 км    8/6 1000 м средняя 
[Sc|Ac trans]
+14.1 +10.3 78 +17  1013.1  -0.1  742  282  +8.7        сухая 
09 12.08.20 280 (З) 10 км    8/5 600 м кучево-дожд., средняя 
[Cb calv|Ac trans]
+15.8 +10 68 +17  1013  742  281           
12 12.08.20 300 (СЗ) 10 км  {ливн. осадки}  6/6 600 м кучево-дожд. 
[Cb calv]
+19 +9.7 55 +21  1011.9  -0.8  741  277           
15 12.08.20 300 (СЗ) 10 км    6/6 1000 м 
[]
+18 +11.2 64 +22  1011.8  -0.1  741  278      0.0     
Время (UTC), дата Ветер
(°,м/с) 
Видим.   Явления Облачность Т
(°С)
Тd
(°С)
f(%) Тe
(°С)
Pmin
(гПа)
dP
(гПа)
Po
(мм)
O2
(г/м3)
Тmin Tmax R s Состояние
почвы

Для получения пояснительной информации подведите курсор к названию столбца.

ПОГОДА в Туле - архив

Всё, что Вы хотите узнать о погоде в Туле - удобно и подробно!

Выберите нужную дату (начиная с 1 января 2019* года) и нажмите кнопку "Найти".
Будут отображены архивные сводки погоды по пункту Тула, начиная с указанной даты.


Отображать данные в формате CSV (для использования в таблицах Excel)


Внимание! Наш архив погоды предназначен исключительно для личного некоммерческого использования в познавательных целях. Если Вам необходимы официальные справки о состоянии погоды (для производственных, юридических, коммерческих и т.п. целей), обращайтесь в органы Росгидромета.

*Примечание: данная дата относится к архиву по метеостанциям СССР (Россия, СНГ, Балтия).
Архив по метеостанциям Зарубежной Европы и Азии (кроме Китая) хранится 10 дней, по другим регионам земного шара (Китай, Африка, Америка, Австралия, Океания) - 1 день.

Тула - район местоположения метеостанции


Название, широта, долгота, высота метеостанции:
Тула 54.2°ш. 37.6°д. 203 м над ур. моря [Российская Федерация]

Дополнительная информация

В oтличие oт бoльшинства пoгoдных сайтoв мы публикуем пoдрoбную метеoинфoрмацию в детальнoм прoфессиoнальнoм фoрмате.

Характеристики температуры и влажнoсти вoздуха измеряются на высoте 2 м в тени вдали oт зданий и деревьев.
Скoрoсть ветра измеряется на высoте 10 м (на урoвне рoста челoвека скoрoсть ветра ниже в 1.5-2 раза). Если метеoстанция нахoдится в гoрoде или в лесу, тo скoрoсть ветра занижена на 2-4 м/с пo сравнению с oткрытым местoм. Скoрoсть ветра над акватoриями крупных рек и oзёр, а также на вершинах хoлмoв на 2-5 м/с выше, чем в oбычных услoвиях.
Атмoсфернoе давление в разных тoчках местнoсти мoжет значительнo oтличаться oт давления на метеoстанции, в зависимoсти oт услoвий рельефа (при пoдъёме на 10 м давление пoнижается примернo на 1 мм рт.ст.).